Regional Weather Roundup
Issued by NWS Jackson, KY

Home | Current Version | Previous Version | Graphics & Text | Print | Product List | Glossary On
Versions: 1 2 3 4 5 6 7 8 9 10 11 12 13 14 15 16 17 18 19 20 21 22 23 24 25 26 27 28 29 30 31 32 33 34 35 36 37 38 39 40 41 42 43 44 45 46 47 48 49 50
000
ASUS43 KJKL 252210
RWRJKL

EAST KENTUCKY HOURLY WEATHER ROUNDUP
NATIONAL WEATHER SERVICE JACKSON KY
600 PM EDT SAT APR 25 2015

NOTE: "FAIR" INDICATES FEW OR NO CLOUDS BELOW 12,000 FEET WITH
NO SIGNIFICANT WEATHER AND/OR OBSTRUCTIONS TO VISIBILITY.

* THESE REPORTS ARE NOT UNDER NWS QUALITY CONTROL AND MAY NOT
  REPORT WEATHER SUCH AS PRECIPITATION AND FOG.

KYZ079-080-083-085-087-088-110-112-115-119-120-252300
...EASTERN KENTUCKY...

CITY           SKY/WX    TMP DP  RH WIND       PRES   REMARKS
JACKSON        PTSUNNY   70  59  68 CALM      29.54S
LONDON         MOSUNNY   80  56  43 W9        29.51F
SOMERSET*      SUNNY     77  54  44 W9        29.52F
MONTICELLO*    MOSUNNY   80  56  43 SW17G25   29.53F
MIDDLESBORO*   MOSUNNY   71  60  68 S3        29.57F
HARLAN APT*    PTCLDY    72  55  56 W8        29.57F
HAZARD APT*    MOCLDY    75  55  50 SW10G18   29.53S
BLACK MTN*       N/A     57  55  94 S8          N/A
PIKEVILLE APT* SUNNY     64  55  72 N5        29.55F
BIG SANDY*     MOCLDY    60  55  83 N8        29.57R
MOREHEAD APT*  CLOUDY    50  48  93 NE9G17    29.62S
$$

KYZ035-036-041-042-044-050-067-078-099-252300
...CENTRAL KENTUCKY...

CITY           SKY/WX    TMP DP  RH WIND       PRES   REMARKS
MT STERLING*   CLOUDY    52  50  93 NE10      29.61R
FLEMING/MASON* DRIZZLE   43  43 100 NE13      29.64S
DANVILLE*      CLOUDY    72  57  60 W5        29.53F
RICHMOND*      PTSUNNY   66  59  77 N7        29.53S
LEXINGTON      CLOUDY    53  50  89 NE18      29.58R
FRANKFORT      CLOUDY    52  48  86 NE12      29.57S
$$

KYZ091>093-OHZ055-061-077-WVZ005-015-034-035-042-252300
...SOUTHERN OHIO/WEST VIRGINIA...

CITY           SKY/WX    TMP DP  RH WIND       PRES   REMARKS
COVINGTON      LGT RAIN  45  45 100 NE14G21   29.65R FOG
COLUMBUS       RAIN      44  44 100 NE5       29.74R FOG
DAYTON         CLOUDY    45  41  86 NE14      29.70R
WILMINGTON     CLOUDY    43  40  89 NE16      29.68R
HUNTINGTON     LGT RAIN  46  46 100 NE10      29.63R FOG
CHARLESTON     HVY RAIN  47  45  93 NE10      29.61F VSB 1
PINEVILLE*     PTSUNNY   59  53  81 MISG      29.62F
BECKLEY        TSTM      46  41  82 N14G22    29.62F
BLUEFIELD      PTSUNNY   55  44  66 SE7       29.63F
$$

VAZ002-007-008-TNZ017-027-036-066-071-252300
...SOUTHWEST VIRGINIA/EAST TENNESSEE...

CITY           SKY/WX    TMP DP  RH WIND       PRES   REMARKS
WISE*          MOSUNNY   66  52  59 SW20G28   29.62S
JONESVILLE*    PTCLDY    70  59  68 W7        29.60F
ABINGDON*      CLOUDY    67  51  55 CALM      29.61F
BRISTOL        CLOUDY    71  56  58 SW9       29.59F
KNOXVILLE      CLOUDY    74  60  61 SW22G30   29.57F
OAK RIDGE      CLOUDY    71  61  70 VRB3      29.58F
CROSSVILLE     CLOUDY    76  52  43 SW12G22   29.61F
NASHVILLE      MOSUNNY   83  55  38 SW14G22   29.51F
$$

...KEY TO REMARKS...
VSB - VISIBILITY IN MILES
WCI - WIND CHILL INDEX
HX  - HEAT INDEX

$$


USA.gov is the U.S. government's official web portal to all federal, state and local government web resources and services.